Probability
3 4 4 4 3 4 5 5 4 3 2 2 2 4 4 3 1 1 2 1 0 0 0 0 0 0 0 0 0 0 0 0 0 0 0 0 0 0
3 4 4 4 3 3 4 4 5 4 3 2 2 2 3 3 1 2 2 1 0 0 0 0 0 0 0 0 0 0 0 0 0 0 0 0 0 0
2 3 3 2 1 1 1 2 3 4 3 2 1 1 2 2 1 1 1 0 0 0 0 0 0 0 0 0 0 0 0 0 0 0 0 0 0 0
1 1 1 0 0 0 0 0 1 2 2 1 0 1 1 1 0 0 0 0 0 0 0 0 0 0 0 0 0 0 0 0 0 0 0 0 0 0
0 0 0 0 0 0 0 0 0 1 1 0 0 0 1 1 0 0 0 0 0 0 0 0 0 0 0 0 0 0 0 0 0 0 0 0 0 0
0 0 0 0 0 0 0 0 1 2 2 1 0 0 1 1 0 0 0 0 0 0 0 0 0 0 0 0 0 0 0 0 0 0 0 0 0 0
0 0 0 0 0 0 0 0 1 2 2 1 0 0 1 1 0 0 0 0 0 0 0 0 0 0 0 0 0 0 0 0 0 0 0 0 0 0
0 0 0 0 0 0 0 0 0 1 1 0 0 0 0 0 0 0 0 0 0 0 0 0 0 0 0 0 0 0 0 0 0 0 0 0 0 0
0 0 0 0 0 0 0 0 0 0 0 0 0 0 0 0 0 0 0 0 0 0 0 0 0 0 0 0 0 0 0 0 0 0 0 0 0 0
0 0 0 0 0 0 0 0 0 0 0 0 0 0 0 0 0 0 0 0 0 0 0 0 0 0 0 0 0 0 0 0 0 0 0 0 0 0
0 0 0 0 0 0 0 0 0 0 0 0 0 0 0 0 0 0 0 0 0 0 0 0 0 0 0 0 0 0 0 0 0 0 0 0 0 0
0 0 0 0 0 0 0 0 0 0 0 0 0 0 0 0 0 0 0 0 0 0 0 0 0 0 0 0 0 0 0 0 0 0 0 0 0 0
0 0 0 0 0 0 0 0 0 0 0 0 0 0 0 0 0 0 0 0 0 0 0 0 0 0 0 0 0 0 0 0 0 0 0 0 0 0
0 0 0 0 0 0 0 0 0 0 0 0 0 0 0 0 0 0 0 0 0 0 0 0 0 0 0 0 0 0 0 0 0 0 0 0 0 0
0 0 0 0 0 0 0 0 0 0 0 0 0 0 0 0 0 0 0 0 0 0 0 0 0 0 0 0 0 0 0 0 0 0 0 0 0 0
0 0 0 0 0 0 0 0 0 0 0 0 0 0 0 0 0 0 0 0 0 0 0 0 0 0 0 0 0 0 0 0 0 0 0 0 0 0
0 0 0 0 0 0 0 0 0 0 0 0 0 0 0 0 0 0 0 0 0 0 0 0 0 0 0 0 0 0 0 0 0 0 0 0 0 0
0 0 0 0 0 0 0 0 0 0 0 0 0 0 0 0 0 0 0 0 0 0 0 0 0 0 0 0 0 0 0 0 0 0 0 0 0 0
0 0 0 0 0 0 0 0 0 0 0 0 0 0 0 0 0 0 0 0 0 0 0 0 0 0 0 0 0 0 0 0 0 0 0 0 0 0
0 0 0 0 0 0 0 0 0 0 0 0 0 0 0 0 0 0 0 0 0 0 0 0 0 0 0 0 0 0 0 0 0 0 0 0 0 0
0 0 0 0 0 0 0 0 0 0 0 0 0 0 0 0 0 0 0 0 0 0 0 0 0 0 0 0 0 0 0 0 0 0 0 0 0 0
0 0 0 0 0 0 0 0 0 0 0 0 0 0 0 0 0 0 0 0 0 0 0 0 0 0 0 0 0 0 0 0 0 0 0 0 0 0
0 0 0 0 0 0 0 0 0 0 0 0 0 0 0 0 0 0 0 0 0 0 0 0 0 0 0 0 0 0 0 0 0 0 0 0 0 0
Wind_Speed
2 2 2 2 1 1 1 2 3 3 2 2 2 2 3 4 5 4 5 10 11 11 11 11 10 10 10 10 9 9 9 8 7 6 6 5 4 4
2 2 2 2 2 1 1 1 1 2 3 2 2 2 4 5 7 5 6 10 10 10 10 9 9 9 9 9 8 8 8 8 7 6 5 4 4 3
2 2 2 2 2 1 1 0 1 2 4 3 2 3 4 5 5 5 5 4 5 9 9 8 8 8 8 8 7 7 7 7 6 5 4 4 3 3
2 2 2 1 1 1 1 1 1 3 4 6 4 3 4 5 5 5 4 4 4 7 8 8 7 7 6 6 5 5 5 5 4 4 4 4 4 4
3 3 2 2 2 1 1 1 2 3 5 6 5 3 3 4 5 4 4 3 4 6 6 6 6 5 5 5 5 4 4 4 4 3 4 4 5 6
4 4 4 3 2 2 2 2 4 5 6 6 6 5 4 3 3 4 3 2 2 4 4 5 5 6 5 6 6 6 5 5 5 5 6 6 6 7
4 5 5 7 6 4 4 4 4 5 5 6 6 5 4 4 3 2 4 3 1 2 3 3 3 3 4 6 7 8 8 8 8 8 8 8 9 9
4 4 5 7 9 9 8 7 5 5 5 5 5 6 5 4 3 4 4 3 2 2 2 3 4 4 4 5 9 11 12 11 11 10 10 10 11 11
3 3 5 6 6 6 8 9 8 8 6 4 6 5 5 4 4 3 3 2 1 2 2 2 2 3 4 6 13 14 14 13 13 12 12 12 13 13
5 5 5 5 5 4 7 7 6 5 4 4 4 4 4 3 2 3 3 2 1 1 2 1 2 2 3 3 11 15 14 14 14 14 14 14 14 14
6 6 5 5 7 6 6 6 6 5 7 9 8 7 5 4 2 1 1 1 1 1 1 1 1 1 2 3 7 14 15 15 15 15 15 15 15 12
5 6 9 7 7 6 4 5 6 5 5 6 5 4 3 2 1 1 0 0 0 1 1 0 1 1 2 2 3 5 7 12 15 16 16 16 15 7
4 4 4 6 7 6 5 5 5 3 3 4 4 3 2 2 1 1 0 1 1 1 0 0 1 1 1 2 2 3 5 5 6 8 14 17 17 11
4 4 4 5 6 6 5 4 3 2 1 2 2 2 2 2 2 1 1 1 1 2 2 1 1 1 2 3 3 3 3 4 4 5 6 9 13 15
4 5 4 3 3 3 3 2 2 1 1 1 2 2 2 2 2 1 2 3 3 4 4 4 3 2 2 3 3 3 3 4 4 4 4 4 4 4
2 3 2 1 1 1 1 1 1 0 1 1 1 1 1 2 2 2 2 2 3 3 4 5 5 5 4 5 4 4 4 4 4 4 4 4 4 4
2 1 2 2 2 2 2 1 1 1 1 1 1 1 1 2 2 2 2 2 2 3 3 3 5 5 6 5 5 5 5 4 4 4 3 4 5 5
3 2 1 2 2 2 2 2 1 1 1 0 0 1 1 1 1 1 2 2 2 2 2 2 2 3 3 5 7 6 5 4 4 4 4 5 7 6
2 3 2 0 0 0 1 1 1 1 1 0 1 1 1 2 2 2 2 2 2 2 2 2 3 3 4 5 4 4 4 4 4 5 5 6 7 6
4 3 2 1 1 1 0 0 1 1 1 1 1 1 2 2 2 2 2 2 2 2 3 3 3 3 3 4 5 5 8 7 6 7 7 6 6 8
3 3 2 1 1 1 1 1 1 1 1 1 1 2 2 2 3 3 3 3 3 3 4 4 4 5 4 3 4 5 6 9 9 7 6 6 7 6
2 2 1 1 1 1 2 2 2 2 2 2 2 2 2 3 3 4 3 3 4 4 4 4 4 4 3 5 6 7 6 6 8 12 13 11 6 5
1 1 1 2 2 2 2 2 2 2 2 2 2 2 2 2 3 3 4 4 4 4 4 4 4 4 5 5 6 6 8 7 5 5 6 10 14 17
Wind_Direction
312 316 312 295 282 263 237 212 188 173 150 128 105 86 98 94 92 91 90 92 94 95 95 99 102 105 109 112 114 116 120 122 125 129 137 148 154 157
317 320 313 313 317 302 278 247 207 159 138 114 106 105 101 99 96 93 93 98 93 97 102 103 104 109 114 116 121 124 125 126 130 138 147 151 159 176
336 335 335 325 316 319 307 220 134 125 133 121 96 108 104 106 100 94 96 95 98 103 107 107 110 113 115 118 122 128 136 137 140 151 164 183 199 218
357 358 341 337 340 332 356 82 114 127 134 132 125 123 112 118 115 108 109 113 109 113 117 117 117 120 128 135 137 141 144 149 158 172 190 210 227 243
18 14 9 9 12 31 59 98 107 115 121 128 127 121 118 126 120 114 111 110 126 132 134 137 141 147 156 163 163 164 172 183 192 206 222 235 245 255
34 32 28 27 30 59 73 93 110 113 119 124 127 126 124 129 131 132 127 130 141 143 143 154 166 176 184 185 187 190 200 212 222 231 239 246 252 259
49 52 54 58 57 71 88 94 108 115 121 125 128 128 133 141 149 158 138 140 156 159 159 175 172 180 193 204 209 213 218 223 229 235 240 247 253 257
65 72 76 70 71 77 85 86 101 120 124 125 129 139 141 144 146 148 143 152 164 188 175 199 181 190 197 194 203 209 218 224 229 234 239 245 250 254
60 65 77 81 75 90 95 89 79 82 101 121 131 140 141 149 145 146 146 145 161 181 171 210 193 200 206 199 195 205 214 222 228 234 238 243 247 251
68 69 76 72 70 83 100 97 91 79 89 107 113 117 123 129 138 144 155 160 180 191 160 198 210 218 215 184 198 205 214 222 227 233 237 242 246 250
65 61 68 68 52 61 96 102 99 95 79 87 96 103 109 118 120 114 161 156 170 196 179 204 225 226 226 209 207 209 217 224 230 235 240 244 247 251
79 68 59 59 50 55 83 97 98 98 106 107 104 117 144 164 193 194 213 58 73 159 167 192 255 248 275 248 203 200 221 235 237 241 243 246 248 245
90 78 59 53 58 56 69 84 100 105 119 133 138 149 163 171 183 192 205 70 61 27 71 68 302 304 288 291 269 222 211 225 231 240 242 244 244 229
81 84 78 64 63 61 70 73 70 64 154 151 141 145 155 160 165 168 179 189 197 207 226 223 254 273 291 295 291 276 253 242 236 236 235 237 239 235
74 96 100 81 65 75 78 61 35 15 92 111 124 137 143 151 166 198 222 228 236 237 225 213 220 245 250 265 275 280 282 272 258 257 257 248 239 229
97 115 124 35 334 89 156 200 224 77 95 111 117 135 158 183 205 210 212 215 226 241 232 217 217 223 243 254 255 264 263 263 265 262 262 263 262 253
344 213 193 192 193 196 194 199 194 173 143 129 148 202 219 219 221 215 219 243 249 253 243 230 227 221 228 239 257 259 260 265 263 265 272 277 271 263
347 286 235 212 200 184 182 177 168 155 147 161 248 274 272 260 248 254 250 248 260 270 271 257 248 251 253 253 234 246 259 265 268 270 269 275 278 269
295 271 264 255 298 168 187 168 137 139 143 209 259 288 296 293 277 267 267 270 276 281 280 273 267 269 283 289 287 241 253 268 271 269 262 258 268 270
243 251 236 198 195 219 243 151 141 165 200 221 225 257 267 278 282 282 281 281 284 289 286 277 268 260 261 271 277 270 251 248 255 261 265 265 265 270
231 226 227 215 204 201 209 212 228 219 209 241 262 264 271 275 280 283 286 290 276 265 269 269 258 248 248 261 269 269 264 248 235 240 257 271 279 281
252 225 204 223 239 231 217 211 217 219 209 223 243 250 257 265 275 281 280 278 272 270 275 274 268 262 260 265 272 277 279 275 261 254 249 241 248 264
251 278 249 228 230 229 237 230 228 225 216 224 244 248 255 265 269 271 271 276 282 288 290 283 279 276 277 277 280 282 286 286 284 279 273 263 253 251